Radiation Dose at Monitoring Post of Fukushima Daini Nuclear Power Station
Date,Time,MP-1(microSv/h),MP-2(microSv/h),MP-3(microSv/h),MP-4(microSv/h),MP-5(microSv/h),MP-6(microSv/h),MP-7(microSv/h),Wind Direction,Wind Velocity(m/s),Rain
2023/06/01,00:00,0.150,0.134,0.216,0.207,0.212,0.120,0.077,north-northwest,3.7,No
2023/06/01,00:10,0.150,0.134,0.216,0.208,0.214,0.120,0.077,north-northwest,4.4,No
2023/06/01,00:20,0.149,0.135,0.217,0.207,0.213,0.120,0.077,northwest,4.6,No
2023/06/01,00:30,0.150,0.136,0.217,0.206,0.214,0.120,0.077,north-northwest,4.6,No
2023/06/01,00:40,0.150,0.135,0.216,0.207,0.213,0.119,0.077,northwest,3.9,No
2023/06/01,00:50,0.150,0.135,0.214,0.206,0.213,0.120,0.076,northwest,3.2,No
2023/06/01,01:00,0.150,0.135,0.216,0.206,0.213,0.120,0.077,northwest,2.7,No
2023/06/01,01:10,0.149,0.134,0.215,0.207,0.212,0.121,0.077,west-northwest,2.4,No
2023/06/01,01:20,0.150,0.135,0.214,0.207,0.214,0.120,0.076,west-northwest,3.1,No
2023/06/01,01:30,0.150,0.136,0.217,0.205,0.212,0.120,0.077,northwest,2.8,No
2023/06/01,01:40,0.150,0.134,0.216,0.207,0.214,0.120,0.076,northwest,2.7,No
2023/06/01,01:50,0.150,0.134,0.216,0.207,0.213,0.120,0.077,north-northwest,3.1,No
2023/06/01,02:00,0.148,0.135,0.215,0.206,0.212,0.120,0.077,north-northwest,2.4,No
2023/06/01,02:10,0.150,0.135,0.217,0.206,0.213,0.121,0.076,north-northwest,2.5,No
2023/06/01,02:20,0.149,0.135,0.215,0.207,0.212,0.120,0.076,northwest,2.7,No
2023/06/01,02:30,0.149,0.135,0.216,0.206,0.215,0.120,0.077,north-northwest,2.7,No
2023/06/01,02:40,0.150,0.135,0.215,0.208,0.212,0.120,0.077,north-northwest,1.9,No
2023/06/01,02:50,0.149,0.133,0.216,0.206,0.214,0.119,0.077,northwest,2.2,No
2023/06/01,03:00,0.150,0.135,0.216,0.206,0.212,0.120,0.077,northwest,2.2,No
2023/06/01,03:10,0.149,0.135,0.216,0.207,0.213,0.120,0.077,northwest,2.0,No
2023/06/01,03:20,0.149,0.134,0.216,0.206,0.214,0.119,0.077,northwest,1.6,No
2023/06/01,03:30,0.151,0.135,0.215,0.205,0.212,0.119,0.076,north-northwest,2.2,No
2023/06/01,03:40,0.149,0.135,0.215,0.207,0.213,0.120,0.077,northwest,2.2,No
2023/06/01,03:50,0.150,0.136,0.216,0.206,0.212,0.121,0.076,northwest,2.0,No
2023/06/01,04:00,0.149,0.136,0.216,0.206,0.212,0.120,0.077,north-northwest,1.2,No
2023/06/01,04:10,0.149,0.136,0.215,0.207,0.213,0.119,0.076,northwest,1.7,No
2023/06/01,04:20,0.150,0.135,0.216,0.207,0.211,0.120,0.077,north,1.4,No
2023/06/01,04:30,0.151,0.135,0.216,0.206,0.213,0.120,0.077,north-northwest,1.1,No
2023/06/01,04:40,0.150,0.134,0.215,0.208,0.213,0.120,0.076,north-northwest,0.9,No
2023/06/01,04:50,0.149,0.134,0.216,0.206,0.214,0.119,0.077,north-northwest,0.7,No
2023/06/01,05:00,0.150,0.135,0.216,0.206,0.213,0.119,0.077,north-northwest,1.0,No
2023/06/01,05:10,0.149,0.134,0.216,0.206,0.212,0.120,0.076,north,0.6,No
2023/06/01,05:20,0.150,0.135,0.216,0.207,0.214,0.119,0.077,north-northwest,1.2,No
2023/06/01,05:30,0.150,0.134,0.216,0.205,0.212,0.119,0.077,north-northwest,0.8,No
2023/06/01,05:40,0.150,0.134,0.216,0.207,0.214,0.120,0.077,-,CALM,No
2023/06/01,05:50,0.150,0.134,0.216,0.205,0.210,0.120,0.077,-,CALM,No
2023/06/01,06:00,0.149,0.134,0.216,0.206,0.214,0.119,0.077,-,CALM,No
2023/06/01,06:10,0.150,0.134,0.215,0.205,0.211,0.120,0.076,-,CALM,No
2023/06/01,06:20,0.149,0.134,0.215,0.205,0.211,0.120,0.077,-,CALM,No
2023/06/01,06:30,0.151,0.134,0.215,0.207,0.213,0.120,0.077,-,CALM,No
2023/06/01,06:40,0.150,0.134,0.215,0.205,0.212,0.119,0.075,-,CALM,No
2023/06/01,06:50,0.150,0.134,0.217,0.206,0.214,0.120,0.078,east-southeast,0.9,No
2023/06/01,07:00,0.150,0.134,0.214,0.204,0.212,0.120,0.077,east-southeast,0.8,No
2023/06/01,07:10,0.150,0.134,0.214,0.205,0.214,0.120,0.076,south,1.0,No
2023/06/01,07:20,0.149,0.136,0.214,0.206,0.212,0.120,0.075,south-southeast,1.5,No
2023/06/01,07:30,0.150,0.134,0.212,0.204,0.213,0.120,0.076,south-southeast,1.9,No
2023/06/01,07:40,0.150,0.134,0.215,0.207,0.214,0.118,0.076,south-southeast,2.5,No
2023/06/01,07:50,0.149,0.134,0.215,0.206,0.210,0.119,0.076,southeast,2.6,Yes
2023/06/01,08:00,0.148,0.134,0.214,0.204,0.213,0.120,0.077,south-southeast,1.6,No
2023/06/01,08:10,0.150,0.133,0.213,0.205,0.215,0.119,0.077,southeast,2.3,No
2023/06/01,08:20,0.150,0.135,0.216,0.207,0.211,0.121,0.077,southeast,2.2,No
2023/06/01,08:30,0.149,0.135,0.215,0.204,0.212,0.120,0.077,south-southeast,4.0,No
2023/06/01,08:40,0.150,0.134,0.214,0.206,0.214,0.120,0.077,south-southeast,5.3,No
2023/06/01,08:50,0.149,0.136,0.217,0.207,0.211,0.121,0.076,south-southeast,5.5,No
2023/06/01,09:00,0.151,0.135,0.216,0.207,0.213,0.120,0.076,south-southeast,5.7,No
2023/06/01,09:10,0.150,0.133,0.215,0.203,0.214,0.119,0.076,south-southeast,6.3,No
2023/06/01,09:20,0.148,0.134,0.214,0.208,0.211,0.120,0.077,south-southeast,6.7,No
2023/06/01,09:30,0.149,0.135,0.213,0.206,0.211,0.119,0.076,south-southeast,8.1,No
2023/06/01,09:40,0.151,0.135,0.217,0.205,0.214,0.120,0.076,south-southeast,7.1,No
2023/06/01,09:50,0.149,0.134,0.216,0.205,0.213,0.120,0.077,south-southeast,8.3,No
2023/06/01,10:00,0.148,0.135,0.216,0.207,0.211,0.120,0.077,south-southeast,7.9,No
2023/06/01,10:10,0.150,0.135,0.214,0.206,0.212,0.120,0.077,south-southeast,7.7,No
2023/06/01,10:20,0.150,0.134,0.218,0.204,0.213,0.121,0.076,south-southeast,7.0,No
2023/06/01,10:30,0.149,0.136,0.215,0.208,0.213,0.120,0.077,south-southeast,8.3,No
2023/06/01,10:40,0.149,0.136,0.216,0.207,0.211,0.120,0.077,south-southeast,7.8,No
2023/06/01,10:50,0.151,0.134,0.214,0.206,0.213,0.120,0.077,south-southeast,8.2,No
2023/06/01,11:00,0.150,0.133,0.214,0.204,0.214,0.120,0.077,south-southeast,8.2,No
2023/06/01,11:10,0.148,0.135,0.216,0.206,0.213,0.120,0.076,south-southeast,8.7,No
2023/06/01,11:20,0.148,0.135,0.216,0.208,0.211,0.120,0.077,southeast,8.7,No
2023/06/01,11:30,0.150,0.135,0.215,0.206,0.210,0.119,0.076,south-southeast,8.6,No
2023/06/01,11:40,0.151,0.134,0.215,0.205,0.211,0.120,0.076,south-southeast,8.3,No
2023/06/01,11:50,-,-,-,-,-,-,-,-,-,-
2023/06/01,12:00,0.149,0.136,0.213,0.208,0.213,0.120,0.077,south-southeast,8.3,No
2023/06/01,12:10,0.148,0.135,0.215,0.207,0.211,0.119,0.077,south-southeast,9.0,No
2023/06/01,12:20,0.148,0.134,0.218,0.207,0.210,0.121,0.077,south-southeast,10.4,No
2023/06/01,12:30,0.148,0.133,0.217,0.206,0.211,0.120,0.076,south-southeast,10.9,No
2023/06/01,12:40,0.150,0.133,0.215,0.205,0.213,0.120,0.077,south-southeast,10.7,No
2023/06/01,12:50,0.150,0.135,0.214,0.208,0.213,0.119,0.077,south-southeast,10.0,No
2023/06/01,13:00,0.150,0.135,0.216,0.208,0.212,0.119,0.077,south,10.6,No
2023/06/01,13:10,0.148,0.134,0.214,0.205,0.210,0.119,0.076,south-southeast,9.8,No
2023/06/01,13:20,0.148,0.134,0.217,0.207,0.212,0.121,0.078,south-southeast,8.8,No
2023/06/01,13:30,0.148,0.135,0.218,0.207,0.214,0.119,0.077,south-southeast,9.2,No
2023/06/01,13:40,0.150,0.135,0.216,0.209,0.212,0.120,0.076,south-southeast,10.6,No
2023/06/01,13:50,0.150,0.135,0.215,0.207,0.210,0.120,0.077,south-southeast,11.2,No
2023/06/01,14:00,0.151,0.134,0.216,0.206,0.211,0.121,0.077,south-southeast,11.1,No
2023/06/01,14:10,0.149,0.134,0.218,0.208,0.214,0.120,0.077,south-southeast,12.0,No
2023/06/01,14:20,0.149,0.135,0.216,0.209,0.212,0.120,0.076,south-southeast,13.4,No
2023/06/01,14:30,0.151,0.135,0.215,0.207,0.211,0.120,0.077,south-southeast,11.5,No
2023/06/01,14:40,0.150,0.134,0.217,0.206,0.211,0.120,0.077,south-southeast,12.0,No
2023/06/01,14:50,0.149,0.135,0.218,0.208,0.215,0.120,0.076,south,11.7,No
2023/06/01,15:00,0.149,0.135,0.217,0.207,0.212,0.119,0.076,south,11.7,No
2023/06/01,15:10,0.151,0.134,0.214,0.206,0.210,0.119,0.077,south,10.7,No
2023/06/01,15:20,0.150,0.134,0.218,0.209,0.215,0.120,0.076,south,10.6,No
2023/06/01,15:30,0.149,0.135,0.217,0.207,0.213,0.120,0.076,south,11.5,No
2023/06/01,15:40,0.151,0.135,0.216,0.206,0.212,0.120,0.077,south,11.1,No
2023/06/01,15:50,0.151,0.133,0.217,0.209,0.213,0.120,0.076,south,10.7,No
2023/06/01,16:00,0.150,0.136,0.218,0.208,0.214,0.121,0.077,south-southeast,9.8,No
2023/06/01,16:10,0.148,0.135,0.215,0.206,0.211,0.119,0.077,south,8.8,No
2023/06/01,16:20,0.152,0.136,0.217,0.208,0.210,0.119,0.077,south,7.9,No
2023/06/01,16:30,0.150,0.135,0.218,0.207,0.213,0.121,0.076,south,8.4,No
2023/06/01,16:40,0.149,0.136,0.216,0.206,0.212,0.120,0.077,south,7.5,No
2023/06/01,16:50,0.151,0.135,0.217,0.207,0.211,0.119,0.077,south,5.6,No
2023/06/01,17:00,0.150,0.136,0.217,0.207,0.214,0.121,0.077,south,6.7,No
2023/06/01,17:10,0.149,0.134,0.216,0.206,0.213,0.120,0.077,south-southeast,7.8,No
2023/06/01,17:20,0.150,0.135,0.218,0.209,0.211,0.120,0.077,south,7.5,No
2023/06/01,17:30,0.150,0.136,0.218,0.207,0.214,0.120,0.076,south,7.4,No
2023/06/01,17:40,0.149,0.136,0.214,0.207,0.213,0.120,0.077,south,8.3,No
2023/06/01,17:50,0.151,0.136,0.218,0.208,0.211,0.120,0.077,south,5.8,No
2023/06/01,18:00,0.150,0.135,0.216,0.206,0.215,0.121,0.076,south,7.0,No
2023/06/01,18:10,0.150,0.135,0.218,0.208,0.211,0.119,0.075,south,6.2,No
2023/06/01,18:20,0.151,0.136,0.217,0.207,0.214,0.121,0.077,south,6.4,No
2023/06/01,18:30,0.149,0.135,0.217,0.209,0.214,0.120,0.076,south,6.4,No
2023/06/01,18:40,0.151,0.134,0.218,0.208,0.212,0.120,0.076,south,7.3,No
2023/06/01,18:50,0.151,0.134,0.217,0.207,0.214,0.120,0.077,south,5.8,No
2023/06/01,19:00,0.149,0.136,0.217,0.209,0.212,0.120,0.077,south,5.9,No
2023/06/01,19:10,0.151,0.135,0.216,0.208,0.214,0.120,0.077,south,5.8,No
2023/06/01,19:20,0.149,0.135,0.218,0.209,0.213,0.119,0.076,south,5.8,No
2023/06/01,19:30,0.151,0.135,0.216,0.207,0.213,0.119,0.077,south,6.4,No
2023/06/01,19:40,0.149,0.135,0.218,0.209,0.214,0.120,0.076,south-southwest,7.8,No
2023/06/01,19:50,0.150,0.136,0.217,0.207,0.212,0.119,0.077,south,7.4,No
2023/06/01,20:00,0.151,0.134,0.218,0.208,0.214,0.121,0.076,south,9.0,No
2023/06/01,20:10,0.149,0.135,0.216,0.209,0.211,0.120,0.076,south,7.4,No
2023/06/01,20:20,0.150,0.133,0.218,0.208,0.215,0.119,0.078,south,5.4,No
2023/06/01,20:30,0.150,0.135,0.216,0.208,0.212,0.120,0.076,south,6.7,No
2023/06/01,20:40,0.151,0.135,0.217,0.208,0.213,0.120,0.077,south,6.7,No
2023/06/01,20:50,0.151,0.135,0.216,0.209,0.213,0.120,0.077,south,9.2,No
2023/06/01,21:00,0.150,0.136,0.217,0.207,0.212,0.119,0.078,south-southwest,9.0,No
2023/06/01,21:10,0.150,0.135,0.216,0.208,0.214,0.120,0.077,south-southwest,9.2,No
2023/06/01,21:20,0.149,0.135,0.218,0.206,0.212,0.120,0.077,south-southwest,9.5,No
2023/06/01,21:30,0.151,0.135,0.217,0.209,0.214,0.120,0.077,south,8.1,No
2023/06/01,21:40,0.150,0.136,0.218,0.207,0.212,0.120,0.077,south,7.8,No
2023/06/01,21:50,-,-,-,-,-,-,-,-,-,-
2023/06/01,22:00,0.150,0.135,0.217,0.209,0.212,0.121,0.076,south,7.7,No
2023/06/01,22:10,0.150,0.135,0.218,0.208,0.212,0.120,0.077,south,8.1,No
2023/06/01,22:20,0.150,0.136,0.217,0.209,0.214,0.120,0.077,south-southwest,7.9,No
2023/06/01,22:30,0.149,0.135,0.217,0.207,0.212,0.121,0.077,south,7.1,No
2023/06/01,22:40,0.151,0.135,0.216,0.208,0.214,0.120,0.076,south,7.5,No
2023/06/01,22:50,0.151,0.135,0.218,0.206,0.212,0.121,0.076,south,9.2,No
2023/06/01,23:00,0.151,0.135,0.216,0.209,0.213,0.120,0.077,south,10.0,No
2023/06/01,23:10,0.151,0.135,0.218,0.206,0.212,0.119,0.077,south,10.1,No
2023/06/01,23:20,0.150,0.136,0.216,0.208,0.214,0.120,0.076,south,10.9,No
2023/06/01,23:30,0.151,0.135,0.217,0.209,0.212,0.120,0.076,south,10.7,No
2023/06/01,23:40,0.150,0.135,0.216,0.208,0.213,0.120,0.077,south,8.3,No
2023/06/01,23:50,0.151,0.136,0.218,0.208,0.214,0.119,0.076,south-southwest,8.4,No
